www.pogodaiklimat.ru

Погода и климат >> Архив погоды >> Россия >> Ставропольский край >> Кисловодск


АРХИВ ПОГОДЫ в Кисловодске

Время (UTC), дата Ветер
(напр.,м/с)
 
Видим.   Явления Облачность Т
(С)
Тd
(С)
f
(%)
Тe
(С)
Тes
(С)
Комфортность P
(гПа)
Po
(гПа)
Тmin
(С)
Tmax
(С)
R
(мм)
R24
(мм)
S
(см)
09 13.09 ЮВ 3
{13}
10 км 1/1 1000 м
[Cu med, cong]
+19.2 +4.2 37 +20 +29 по сезону 1019.4 914.4
12 13.09 ЮВ 3
{11}
10 км ясно +19.7 +3.7 35 +20 +26 прохладно 1018.5 913.7
15 13.09 ЮВ 2 10 км ясно +16.6 +5.7 48 +17 +17 прохладно 1019.8 913.9 +19.8
18 13.09 Ю 3 10 км ясно +13.2 +4.5 56 +12 +12 прохладно 1021.6 914.3
21 13.09 Ю 4 10 км ясно +12.0 +5.3 64 +10 +10 прохладно 1021.2 913.5
00 14.09 ЮЗ 1 10 км ясно +8.0 +5.1 82 +7 +7 прохладно 1022.3 913.0
03 14.09 З 1 10 км ясно +8.0 +4.8 80 +7 +7 холодно 1022.3 913.0 +7.1
06 14.09 ЮВ 2 10 км ясно +17.1 +5.6 47 +17 +23 по сезону 1018.6 912.9
09 14.09 Ю 3 10 км ясно +22.1 +5.4 34 +23 +33 комфорт 1015.5 911.8
12 14.09 В 2 10 км 3/3 1000 м
[Cu hum]
+21.8 +7.0 38 +23 +27 комфорт 1015.0 911.4
15 14.09 ЮВ 2 10 км 1/1 600 м
[Sc diur, vesp]
+18.3 +7.0 48 +19 +19 по сезону 1016.5 911.5 +22.7
18 14.09 Ю 2 10 км ясно +13.2 +7.7 69 +13 +13 прохладно 1018.9 911.9
21 14.09 Ю 2 10 км ясно +10.2 +6.1 76 +9 +9 прохладно 1020.1 911.9
00 15.09 Ю 3 10 км ясно +8.7 +4.7 76 +6 +6 холодно 1021.0 912.1
03 15.09 Ю 2 10 км ясно +7.8 +4.4 79 +6 +6 очень
холодно
1021.4 912.2 +7.4
06 15.09 С 1 10 км 1/1 1000 м
[Cu hum]
+18.0 +6.0 45 +19 +25 тепло 1018.0 912.7
09 15.09 С 1 10 км 10/3 1000 м
[Cu med, cong Ci]
+22.6 +4.2 30 +23 +31 комфорт 1015.6 912.1
12 15.09 СВ 1 10 км 10/5 1000 м
[Cb cap Ci]
+21.2 +4.6 34 +22 +25 комфорт 1016.3 912.2
15 15.09 ЮЗ 1 10 км 9/9 600 м
[Cb cap]
+18.7 +6.6 45 +20 +20 тепло 1018.0 913.0 +23.3
18 15.09 Ю 2 10 км 9/9 600 м
[Sc]
+12.5 +6.7 68 +12 +12 прохладно 1022.0 914.4
21 15.09 Ю 2 10 км 3/3 1000 м
[Sc]
+9.9 +4.6 70 +9 +9 прохладно 1022.5 913.9
00 16.09 Ю 1 10 км ясно +7.5 +3.8 77 +7 +7 прохладно 1023.0 913.5
03 16.09 Ю 1 10 км ясно +7.8 +3.8 76 +7 +7 холодно 1021.7 912.4 +6.7
06 16.09 СЗ 1 10 км ясно +16.0 +5.4 49 +17 +23 тепло 1016.7 910.9
09 16.09 ЮВ 3
{11}
10 км 3/0
[Ac trans]
+22.6 +4.8 31 +23 +31 комфорт 1012.1 909.0
12 16.09 ЮВ 2 10 км 10/0
[Ac As Ci fib]
+22.3 +5.8 34 +23 +26 комфорт 1010.7 907.6
15 16.09 Ю 3 10 км 9/0
[Ac As Ci fib]
+18.9 +6.8 45 +20 +20 тепло 1011.8 907.5 +23.8
18 16.09 Ю 2 10 км 9/9 600 м
[Sc]
+13.7 +8.4 70 +13 +13 по сезону 1014.5 908.2
21 16.09 Ю 2 10 км 10/4 600 м
[Sc Ci fib]
+13.1 +8.2 72 +12 +12 по сезону 1014.5 908.0
00 17.09 Ю 1 10 км ливневой дождь 10/10 600 м
[Cb cap]
+11.7 +10.4 92 +11 +11 по сезону 1015.1 908.1
03 17.09 Ю 2 10 км 10/10 600 м
[Cb cap]
+11.6 +10.8 95 +10 +10 прохладно 1014.7 907.7 +11.5 3
06 17.09 штиль 0 10 км {ливн. осадки} 10/10 1000 м
[Cb cap]
+11.6 +10.8 95 +11 +11 прохладно 1014.7 907.8
09 17.09 Ю 1 10 км ливневой дождь 10/10 600 м
[Cb cap]
+14.2 +13.2 94 +14 +14 холодно 1013.1 907.3
12 17.09 штиль 0 10 км {ливн. осадки} 10/10 600 м
[Cb cap]
+15.8 +12.5 81 +16 +16 холодно 1011.2 906.1
15 17.09 штиль 0 10 км 10/3 1000 м
[Sc Ac trans Ci]
+15.9 +13.1 83 +16 +16 прохладно 1010.8 905.8 +18.1 2
18 17.09 Ю 2 10 км 3/0
[Ac und]
+13.7 +12.6 93 +13 +13 по сезону 1013.0 907.0
21 17.09 Ю 1 10 км 8/8 600 м
[Sc]
+12.1 +11.1 94 +12 +12 по сезону 1013.8 907.1
00 18.09 Ю 2 10 км 8/6 600 м
[Sc Ac und]
+10.0 +8.8 92 +8 +8 прохладно 1014.9 907.2
03 18.09 Ю 2 10 км ясно +8.5 +6.4 87 +7 +7 холодно 1016.2 907.8 +8.0
06 18.09 С 1 10 км ясно +16.3 +9.0 62 +17 +23 тепло 1014.0 908.6 +8.0
09 18.09 С 1 10 км ясно +23.9 +3.3 26 +23 +37 комфорт 1010.4 907.8
12 18.09 СВ 1 10 км 1/0
[Ac lent]
+24.6 +4.8 28 +24 +31 комфорт 1009.6 907.3
15 18.09 Ю 3 10 км ясно +20.3 +7.0 42 +22 +22 комфорт 1010.7 906.9 +25.0
18 18.09 Ю 2 н/о н/о +12.8 +7.8 72 +12 +12 прохладно 1014.2 907.6
21 18.09 Ю 2 10 км ясно +10.0 +4.9 71 +9 +9 прохладно 1016.3 908.4
00 19.09 ЮЗ 1 10 км ясно +8.2 +4.2 76 +8 +8 прохладно 1018.8 910.0
03 19.09 Ю 3 10 км ясно +6.2 +4.9 91 +3 +3 очень
холодно
1020.5 910.8 +6.0
06 19.09 С 1 10 км 4/4 1000 м
[Cu hum]
+14.6 +7.8 64 +15 +19 по сезону 1018.5 912.1
09 19.09 С 1 10 км 8/8 1000 м
[Sc]
+17.5 +8.9 57 +19 +21 по сезону 1016.7 911.5
12 19.09 С 1 10 км 10/10 600 м
[Cb cap]
+15.7 +9.6 67 +16 +16 холодно 1018.0 912.0
15 19.09 Ю 3 10 км 10/10 600 м
[Sc]
+14.6 +8.8 68 +14 +14 прохладно 1018.7 912.2 +18.4
18 19.09 ЮВ 4 10 км 10/10 600 м
[Sc]
+13.5 +8.7 73 +12 +12 прохладно 1019.2 912.3
21 19.09 Ю 2 10 км ясно +10.2 +7.9 86 +9 +9 прохладно 1018.7 910.7
00 20.09 Ю 1 10 км ясно +7.5 +6.7 95 +6 +6 прохладно 1020.2 911.0
03 20.09 Ю 1 10 км ясно +6.1 +5.5 96 +5 +5 холодно 1019.8 910.1 +6.1
06 20.09 С 1 10 км 5/5 600 м
[Sc]
+12.7 +6.7 67 +13 +16 по сезону 1015.8 908.9 +5.9

 

Местоположение метеостанции Кисловодск (Ставропольский край, Россия): широта 43.90 долгота 42.72 высота над уровнем моря 943 м.

В архиве по умолчанию представлена погода в Кисловодске за последнюю неделю. Архивные данные за месяц целиком и за предыдущие месяцы, начиная с января 2011 года, Вы можете получить, выбрав интересующий диапазон дат из раскрывающегося списка и нажав кнопку "Ввод!".


*Определитесь, кто Вы:
робот инопланетянин человек

Внимание! Время в таблицах - всемирное. Для получения местного времени необходимо прибавить поправку, которая равна 3 ч.

Смотрите также архив погоды в соседних городах и на ближайших метеорологических станциях:

Погода в Шаджатмазе (Карачаево-Черкессия, Россия) (19 км)
Погода в Минеральных Водах (Ставропольский край, Россия) (47 км)
Погода в Тырныаузе (Кабардино-Балкария, Россия) (60 км)
Погода в Черкесске (Карачаево-Черкессия, Россия) (63 км)
Погода в Георгиевске (Ставропольский край, Россия) (64 км)
Погода в Архызе (Карачаево-Черкессия, Россия) (71 км)
Погода на Леднике Гарабаши (Карачаево-Черкессия, Россия) (73 км)
Погода в Терсколе (Кабардино-Балкария, Россия) (74 км)
Погода в Чегете (Кабардино-Балкария, Россия) (76 км)
Погода в Нальчике (Кабардино-Балкария, Россия) (84 км)

Пояснения к столбцам:

Ветер - указаны скорость ветра в м/с - средняя за 10 мин, порывы в срок и между сроками (в фигурных скобках) и направление, откуда дует ветер: С - северный, СВ - северо-восточный, В - восточный, ЮВ - юго-восточный, Ю - южный, ЮЗ - юго-западный, З - западный, СЗ - северо-западный.
Видимость - горизонтальная дальность видимости в метрах или километрах. При видимости от 1 до 10 км при отсутствии осадков обычно наблюдается дымка, при ухудшении видимости до 1 км и менее - туман. В сухую погоду видимость может ухудшаться дымом, пылью или мглою.
Явления - указаны атмосферные явления, наблюдавшиеся в срок или в последний час перед сроком; фигурными скобками обозначены явления, наблюдавшиеся между сроками (за 1-3 часа до срока); квадратными скобками обозначены град или гололедные отложения с указанием их диаметра в мм.
Облачность - указаны через наклонную черту общая и нижняя облачность в баллах и высота нижней границы облаков в метрах; квадратными скобками обозначены формы облаков: Ci - перистые, Cs - перисто-слоистые, Cc - перисто-кучевые, Ac - высококучевые, As - высокослоистые, Sc - слоисто-кучевые, Ns - слоисто-дождевые, Cu - кучевые, Cb - кучево-дождевые. Подробнее классификацию облаков см. в Атласе облаков (PDF).
T - Температура воздуха - температура, измеренная на высоте 2 м над землей.
Td - Температура точки росы - температура, при понижении до которой содержащийся в воздухе водяной пар достигнет насыщения.
f - Относительная влажность воздуха - влажноcть воздуха, измеренная на высоте 2 м над землей.
Te - Эффективная температура - температура, которую ощущает одетый по сезону человек в тени. Характеристика душности погоды. При расчете учитывается влияние влажности воздуха и скорости ветра на теплоощущения человека.
Tes - Эффективная температура на солнце - температура, которую ощущает человек, с поправкой на солнечный нагрев. Характеристика знойности погоды. Зависит от высоты солнца над горизонтом, облачности и скорости ветра. Ночью, в пасмурную погоду, а также при ветре 12 м/с и более поправка равна нулю.
P - Атмосферное давление - приведенное к уровню моря атмосферное давление.
Po - Атмосферное давление - измеренное на уровне метеостанции атмосферное давление.
Tmin - Минимальная температура - минимум температуры воздуха на высоте 2 м над землей.
Tmax - Максимальная температура - максимум температуры воздуха на высоте 2 м над землей.
R - Количество осадков - Количество выпавших осадков за период времени, мм. При наведении курсора мыши на число - период времени, за который выпало указанное количество осадков.
R24 - Количество осадков - Количество выпавших осадков за 24 часа, мм.
S - Снежный покров - Высота снежного покрова, см. При наведении курсора мыши на число - состояние снежного покрова и степень покрытия местности в баллах.